Weather History for KTZR - May, 2013

Change the Weather History Date:

Wednesday, May 8, 2013

  Actual Average Record
Temperature  
Mean Temperature 61 °F -  
Max Temperature 69 °F 70 °F 87 °F (2007)
Min Temperature 53 °F 51 °F 41 °F (2006)
Degree Days  
Heating Degree Days 4    
Growing Degree Days 11 (Base 50)    
Moisture  
Dew Point 53 °F    
Average Humidity 79    
Maximum Humidity 92    
Minimum Humidity 56    
Precipitation  
Precipitation 0.00 in - - ()
Sea Level Pressure  
Sea Level Pressure 29.96 in    
Wind  
Wind Speed 5 mph (NNW)    
Max Wind Speed 10 mph    
Max Gust Speed -    
Visibility 10 miles    
Events Rain    
Averages and records for this station are not official NWS values.
T = Trace of Precipitation, MM = Missing Value Source: NWS Daily Summary

Daily Weather History Graph

Daily Weather History Graph

Search for Another Location

Airport or City:

Trip Planner

Search our weather history database for the weather conditions in past years. The results will help you decide how hot, cold, wet, or windy it might be!

Date:

Astronomy

May. 08, 2013 Rise Set
Actual Time 6:24 AM EDT 8:34 PM EDT
Civil Twilight 5:54 AM EDT 9:04 PM EDT
Nautical Twilight 5:17 AM EDT 9:41 PM EDT
Astronomical Twilight 4:37 AM EDT 10:21 PM EDT
Moon 5:31 AM EDT (5/8) 7:31 PM EDT (5/8)
Length of Visible Light 15h 09m
Length of Day
14h 09m
Waning Crescent, 2% of the Moon is Illuminated
May 8
Waning Crescent
May 9
New
May 18
First Quarter
May 25
Full
May 31
Last Quarter

Hourly Weather History & Observations

Time (EDT) Temp. Dew Point Humidity Pressure Visibility Wind Dir Wind Speed Gust Speed Precip Events Conditions
12:15 AM 55.2 °F 52.5 °F 91% 29.97 in 10.0 mi NNE 5.8 mph - N/A   Clear
12:35 AM 55.4 °F 52.3 °F 89% 29.97 in 10.0 mi North 5.8 mph - N/A   Clear
12:55 AM 55.2 °F 52.0 °F 89% 29.96 in 10.0 mi North 5.8 mph - N/A   Clear
1:15 AM 53.6 °F 51.3 °F 92% 29.96 in 10.0 mi North 6.9 mph - N/A   Clear
1:35 AM 54.1 °F 51.8 °F 92% 29.96 in 10.0 mi North 6.9 mph - N/A   Clear
1:55 AM 54.1 °F 51.4 °F 91% 29.95 in 10.0 mi North 6.9 mph - N/A   Clear
2:15 AM 55.4 °F 51.8 °F 88% 29.95 in 10.0 mi North 5.8 mph - N/A   Clear
2:35 AM 55.6 °F 51.8 °F 87% 29.94 in 10.0 mi NNW 3.5 mph - N/A   Scattered Clouds
2:55 AM 55.8 °F 51.6 °F 86% 29.94 in 10.0 mi NW 4.6 mph - N/A   Mostly Cloudy
3:15 AM 55.4 °F 51.3 °F 86% 29.94 in 10.0 mi NNW 3.5 mph - N/A   Mostly Cloudy
3:35 AM 55.4 °F 51.3 °F 86% 29.93 in 10.0 mi Calm Calm - N/A   Overcast
3:55 AM 54.9 °F 51.3 °F 88% 29.94 in 10.0 mi WNW 4.6 mph - N/A   Overcast
4:15 AM 55.2 °F 51.8 °F 88% 29.94 in 10.0 mi NNW 5.8 mph - N/A   Overcast
4:35 AM 56.1 °F 52.2 °F 87% 29.94 in 10.0 mi NNW 3.5 mph - N/A   Overcast
4:55 AM 57.4 °F 52.9 °F 85% 29.94 in 10.0 mi North 4.6 mph - N/A   Overcast
5:15 AM 58.1 °F 52.7 °F 82% 29.93 in 10.0 mi Calm Calm - N/A   Overcast
5:35 AM 58.3 °F 52.9 °F 82% 29.93 in 10.0 mi North 5.8 mph - N/A   Overcast
5:55 AM 58.1 °F 52.7 °F 82% 29.93 in 10.0 mi NW 4.6 mph - N/A   Overcast
6:15 AM 57.6 °F 52.9 °F 84% 29.93 in 10.0 mi NNW 5.8 mph - N/A   Overcast
6:35 AM 57.7 °F 52.7 °F 83% 29.94 in 10.0 mi NNW 5.8 mph - N/A   Overcast
6:55 AM 56.5 °F 52.3 °F 86% 29.94 in 10.0 mi NW 5.8 mph - N/A   Mostly Cloudy
7:15 AM 58.6 °F 52.9 °F 81% 29.95 in 10.0 mi NNW 8.1 mph - N/A   Mostly Cloudy
7:58 AM 60.8 °F 53.6 °F 77% 29.96 in 10.0 mi North 6.9 mph - N/A   Scattered Clouds
8:48 AM 62.6 °F 55.4 °F 77% 29.96 in 10.0 mi North 9.2 mph - N/A   Mostly Cloudy
9:50 AM 64.4 °F 53.6 °F 68% 29.97 in 10.0 mi NNE 10.4 mph - N/A   Mostly Cloudy
10:50 AM 64.4 °F 55.4 °F 73% 29.99 in 10.0 mi NNE 6.9 mph - N/A   Mostly Cloudy
11:50 AM 64.4 °F 53.6 °F 68% 30.00 in 10.0 mi NE 6.9 mph - N/A   Mostly Cloudy
12:50 PM 64.4 °F 53.6 °F 68% 29.99 in 10.0 mi North 4.6 mph - N/A   Mostly Cloudy
1:50 PM 66.2 °F 53.6 °F 64% 29.99 in 10.0 mi North 6.9 mph - N/A   Scattered Clouds
2:50 PM 66.2 °F 51.8 °F 60% 29.98 in 10.0 mi NNE 6.9 mph - N/A   Scattered Clouds
5:55 PM 69.8 °F 53.6 °F 56% 29.96 in 10.0 mi Calm Calm - N/A   Mostly Cloudy
7:35 PM 68.2 °F 52.5 °F 57% 29.95 in 10.0 mi Calm Calm - N/A   Scattered Clouds
7:55 PM 67.1 °F 53.4 °F 61% 29.95 in 10.0 mi Calm Calm - N/A   Clear
8:15 PM 66.6 °F 51.8 °F 59% 29.96 in 10.0 mi West 3.5 mph - N/A   Clear
8:35 PM 64.0 °F 54.0 °F 70% 29.97 in 10.0 mi Calm Calm - N/A   Scattered Clouds
8:55 PM 62.8 °F 54.1 °F 73% 29.97 in 10.0 mi WSW 3.5 mph - N/A   Mostly Cloudy
9:15 PM 63.5 °F 53.6 °F 70% 29.97 in 10.0 mi West 4.6 mph - N/A Rain Light Rain
9:35 PM 63.5 °F 54.0 °F 71% 29.98 in 10.0 mi Calm Calm - N/A   Overcast
9:55 PM 62.6 °F 54.5 °F 75% 29.99 in 10.0 mi Calm Calm - N/A   Overcast
10:15 PM 61.9 °F 54.5 °F 77% 29.99 in 10.0 mi SW 3.5 mph - N/A   Mostly Cloudy
10:35 PM 59.4 °F 54.1 °F 83% 29.99 in 10.0 mi WSW 5.8 mph - N/A   Scattered Clouds
11:15 PM 57.4 °F 53.6 °F 87% 29.99 in 10.0 mi WSW 4.6 mph - N/A   Clear
11:35 PM 57.7 °F 54.1 °F 88% 29.99 in 10.0 mi WSW 6.9 mph - N/A   Clear
11:55 PM 57.6 °F 54.5 °F 90% 29.99 in 10.0 mi WSW 6.9 mph - N/A   Clear